Weather History for Asheville, NC

Change the Weather History Date:

Friday, March 16, 2012

  Actual Average Record
Temperature  
Mean Temperature 64 °F 47 °F  
Max Temperature 77 °F 59 °F 81 °F (1945)
Min Temperature 50 °F 36 °F 9 °F (1893)
Degree Days  
Heating Degree Days 1 18  
Month to date heating degree days 214 316  
Since 1 July heating degree days 3020 3533  
Cooling Degree Days 0 0  
Month to date cooling degree days 0 0  
Year to date cooling degree days 0 0  
Growing Degree Days 12 (Base 50)    
Moisture  
Dew Point 52 °F    
Average Humidity 67    
Maximum Humidity 96    
Minimum Humidity 38    
Precipitation  
Precipitation 0.24 in 0.12 in 2.61 in (1973)
Month to date precipitation 1.64 1.97  
Year to date precipitation 7.08 9.40  
Snow  
Snow 0.00 in 0.10 in 3.50 in (1900)
Month to date snowfall T 1.1  
Since 1 July snowfall T 8.4  
Snow Depth 0.00 in    
Sea Level Pressure  
Sea Level Pressure 30.21 in    
Wind  
Wind Speed 3 mph (NW)    
Max Wind Speed 20 mph    
Max Gust Speed 29 mph    
Visibility 5 miles    
Events Fog , Thunderstorm    
T = Trace of Precipitation, MM = Missing Value Source: NWS Daily Summary

Daily Weather History Graph

Daily Weather History Graph

Search for Another Location

Airport:

Trip Planner

Search our weather history database for the weather conditions in past years. The results will help you decide how hot, cold, wet, or windy it might be!

Date:

Astronomy

Mar. 16, 2012 Rise Set
Actual Time 7:38 AM EDT 7:38 PM EDT
Civil Twilight 7:13 AM EDT 8:04 PM EDT
Nautical Twilight 6:43 AM EDT 8:33 PM EDT
Astronomical Twilight 6:14 AM EDT 9:03 PM EDT
Moon 3:44 AM EDT (3/16) 2:08 PM EDT (3/16)
Length of Visible Light 12h 50m
Length of Day
12h 00m
Waning Crescent, 33% of the Moon is Illuminated
Mar 16
Waning Crescent
Mar 22
New
Mar 30
First Quarter
Apr 6
Full
Apr 13
Last Quarter

Hourly Weather History & Observations

Time (EDT) Temp. Dew Point Humidity Pressure Visibility Wind Dir Wind Speed Gust Speed Precip Events Conditions
12:54 AM 57.9 °F 53.1 °F 84% 30.25 in 10.0 mi NNW 17.3 mph - N/A   Mostly Cloudy
1:54 AM 57.0 °F 54.0 °F 89% 30.25 in 10.0 mi NE 3.5 mph - 0.08 in   Overcast
2:54 AM 55.9 °F 53.1 °F 90% 30.22 in 10.0 mi Calm Calm - N/A   Scattered Clouds
3:48 AM 53.6 °F 51.8 °F 94% 30.23 in 1.8 mi Calm Calm - N/A   Clear
3:50 AM 53.6 °F 51.8 °F 94% 30.23 in 1.0 mi Calm Calm - N/A   Mist
3:54 AM 53.1 °F 52.0 °F 96% 30.18 in 0.5 mi Calm Calm - N/A Fog Fog
4:10 AM 53.6 °F 51.8 °F 94% 30.22 in 1.2 mi Calm Calm - N/A   Scattered Clouds
4:12 AM 53.6 °F 53.6 °F 100% 30.22 in 2.0 mi Calm Calm - N/A   Scattered Clouds
4:20 AM 51.8 °F 51.8 °F 100% 30.21 in 1.2 mi Calm Calm - N/A   Scattered Clouds
4:29 AM 53.6 °F 51.8 °F 94% 30.21 in 2.5 mi Calm Calm - N/A   Partly Cloudy
4:36 AM 51.8 °F 51.8 °F 100% 30.21 in 6.0 mi Calm Calm - N/A   Partly Cloudy
4:43 AM 51.8 °F 51.8 °F 100% 30.21 in 1.5 mi Calm Calm - N/A   Partly Cloudy
4:47 AM 51.8 °F 51.8 °F 100% 30.21 in 1.0 mi Calm Calm - N/A   Mist
4:52 AM 51.8 °F 51.8 °F 100% 30.21 in 0.5 mi NNW 3.5 mph - N/A Fog Fog
4:54 AM 51.1 °F 50.0 °F 96% 30.16 in 0.5 mi NNW 3.5 mph - N/A Fog Fog
5:02 AM 51.8 °F 50.0 °F 94% 30.21 in 0.2 mi Calm Calm - N/A Fog Fog
5:13 AM 51.8 °F 51.8 °F 100% 30.22 in 0.2 mi Calm Calm - N/A Fog Fog
5:27 AM 51.8 °F 51.8 °F 100% 30.22 in 0.2 mi Calm Calm - N/A Fog Fog
5:33 AM 51.8 °F 51.8 °F 100% 30.23 in 1.0 mi Calm Calm - N/A   Mist
5:36 AM 51.8 °F 51.8 °F 100% 30.23 in 2.5 mi Calm Calm - N/A   Overcast
5:44 AM 51.8 °F 51.8 °F 100% 30.23 in 1.2 mi Calm Calm - N/A   Overcast
5:54 AM 51.1 °F 50.0 °F 96% 30.19 in 0.8 mi Calm Calm - N/A   Overcast
6:27 AM 51.8 °F 51.8 °F 100% 30.23 in 1.2 mi North 3.5 mph - N/A   Overcast
6:31 AM 51.8 °F 51.8 °F 100% 30.23 in 2.0 mi Calm Calm - N/A   Overcast
6:39 AM 51.8 °F 51.8 °F 100% 30.23 in 4.0 mi Calm Calm - N/A   Overcast
6:54 AM 51.1 °F 50.0 °F 96% 30.20 in 6.0 mi Calm Calm - N/A   Mostly Cloudy
7:04 AM 51.8 °F 50.0 °F 94% 30.24 in 2.5 mi SW 4.6 mph - N/A   Mostly Cloudy
7:08 AM 50.0 °F 50.0 °F 100% 30.24 in 1.5 mi SW 4.6 mph - N/A   Mostly Cloudy
7:18 AM 51.8 °F 50.0 °F 94% 30.24 in 3.0 mi Calm Calm - N/A   Mostly Cloudy
7:54 AM 51.1 °F 50.0 °F 96% 30.21 in 5.0 mi Calm Calm - N/A   Partly Cloudy
8:27 AM 51.8 °F 50.0 °F 94% 30.25 in 1.5 mi Calm Calm - N/A   Clear
8:34 AM 51.8 °F 50.0 °F 94% 30.25 in 1.0 mi Calm Calm - N/A   Clear
8:38 AM 51.8 °F 51.8 °F 100% 30.25 in 2.5 mi Calm Calm - N/A   Clear
8:45 AM 53.6 °F 51.8 °F 94% 30.25 in 8.0 mi North 5.8 mph - N/A   Clear
8:54 AM 53.1 °F 52.0 °F 96% 30.22 in 10.0 mi NW 4.6 mph - N/A   Clear
9:54 AM 59.0 °F 53.1 °F 81% 30.23 in 10.0 mi Calm Calm - N/A   Clear
10:54 AM 64.0 °F 51.1 °F 63% 30.24 in 10.0 mi Calm Calm - N/A   Clear
11:54 AM 70.0 °F 51.1 °F 51% 30.22 in 10.0 mi Calm Calm - N/A   Clear
12:54 PM 71.6 °F 51.8 °F 50% 30.25 in 10.0 mi South 5.8 mph - N/A   Clear
1:54 PM 75.0 °F 51.1 °F 43% 30.17 in 10.0 mi Variable 4.6 mph - N/A   Clear
2:54 PM 75.0 °F 48.9 °F 40% 30.13 in 10.0 mi North 8.1 mph - N/A   Mostly Cloudy
3:54 PM 68.0 °F 52.0 °F 56% 30.15 in 10.0 mi North 10.4 mph - 0.00 in   Overcast
4:54 PM 69.1 °F 54.0 °F 58% 30.14 in 10.0 mi SSE 5.8 mph - N/A   Scattered Clouds
5:54 PM 70.0 °F 52.0 °F 53% 30.13 in 10.0 mi Calm Calm - N/A   Mostly Cloudy
6:34 PM 69.8 °F 51.8 °F 53% 30.18 in 10.0 mi SSW 3.5 mph - N/A Thunderstorm Thunderstorm
6:54 PM 64.9 °F 57.0 °F 75% 30.16 in 10.0 mi SSW 6.9 mph - N/A Thunderstorm Thunderstorm
7:10 PM 62.6 °F 55.4 °F 77% 30.20 in 1.8 mi Variable 4.6 mph - 0.09 in Thunderstorm Unknown
7:15 PM 60.8 °F 57.2 °F 88% 30.20 in 3.0 mi Calm Calm - 0.11 in Thunderstorm Overcast
7:54 PM 61.0 °F 57.9 °F 90% 30.17 in 7.0 mi Calm Calm - 0.11 in Thunderstorm Thunderstorm
8:54 PM 57.0 °F 52.0 °F 83% 30.23 in 10.0 mi North 11.5 mph - 0.03 in Thunderstorm Thunderstorm
9:54 PM 55.9 °F 54.0 °F 93% 30.24 in 10.0 mi NW 5.8 mph - 0.02 in Thunderstorm Thunderstorm
10:01 PM 55.4 °F 53.6 °F 94% 30.27 in 10.0 mi NW 4.6 mph - N/A   Partly Cloudy
10:54 PM 55.4 °F 53.6 °F 94% 30.27 in 10.0 mi North 3.5 mph - N/A   Clear
11:54 PM 54.0 °F 52.0 °F 93% 30.21 in 10.0 mi NNW 8.1 mph - N/A   Partly Cloudy